sat.trackr.live / text

‹ back to catalog

STARLINK-32411

NORAD 61547 · 2024-184R

PAYLOAD ACTIVE UNKNOWN

§ Identity

Operator
Country
US
Launch date
2024-10-15
Launch site
AFWTR
Launch vehicle
Mass (kg)
RCS (m²)

Purposes: comms

External: N2YO · Heavens-Above · Gunter

§ Orbital elements

Epoch: 2026-09-21T06:23:52.696032Z

Period
93.85 min
Inclination
53.1597°
Eccentricity
0.0001155
Mean motion
15.34399322 rev/d
Perigee alt
461.9 km
Apogee alt
463.5 km
Semi-major
6,840.8 km
B*
1.6723e-5
RAAN
182.4630°
Arg perigee
60.9450°
Mean anomaly
299.1668°
Rev number
10,849

§ Raw data

STARLINK-324111 61547U 24184R   26264.26658213  .00000189  00000+0  16723-4 0  99952 61547  53.1597 182.4630 0001155  60.9450 299.1668 15.34399322108499

JSON: /api/v1/satellites/61547 · /tle

For live sub-satellite position, see the globe view (requires WebGL).

§ Visibility from observer

Set your observer location to see the next 7 days of passes ≥ 10°. The values pass through the URL so the page stays shareable.

No JS? Fill the form by hand. The geolocation button needs JavaScript.